Time,TemperatureF,DewpointF,PressureIn,WindDirection,WindDirectionDegrees,WindSpeedMPH,WindSpeedGustMPH,Humidity,HourlyPrecipIn,Conditions,Clouds,dailyrainin,SoftwareType,DateUTC
2013-07-05 00:00:00,88.6,57.5,29.62,SSE,160,0.0,6.0,35,0.00,,---,0.00,VWS V14.01,2013-07-05 07:00:00,
2013-07-05 00:05:00,88.3,58.0,29.62,SSE,160,0.0,0.0,36,0.00,,---,0.00,VWS V14.01,2013-07-05 07:05:00,
2013-07-05 00:10:00,88.1,57.8,29.62,SSW,205,0.0,2.0,36,0.00,,---,0.00,VWS V14.01,2013-07-05 07:10:00,
2013-07-05 00:15:00,88.1,58.6,29.62,SSW,205,0.0,2.0,37,0.00,,---,0.00,VWS V14.01,2013-07-05 07:15:00,
2013-07-05 00:20:00,88.0,58.5,29.62,South,169,0.0,3.0,37,0.00,,---,0.00,VWS V14.01,2013-07-05 07:20:00,
2013-07-05 00:25:00,88.1,58.6,29.62,South,188,2.0,3.0,37,0.00,,---,0.00,VWS V14.01,2013-07-05 07:25:00,
2013-07-05 00:30:00,88.1,58.6,29.62,WSW,249,1.0,4.0,37,0.00,,---,0.00,VWS V14.01,2013-07-05 07:30:00,
2013-07-05 00:36:00,88.1,59.3,29.62,SW,229,1.0,2.0,38,0.00,,---,0.00,VWS V14.01,2013-07-05 07:36:00,
2013-07-05 00:41:00,88.0,59.2,29.62,WSW,255,0.0,2.0,38,0.00,,---,0.00,VWS V14.01,2013-07-05 07:41:00,
2013-07-05 00:46:00,87.9,59.2,29.62,SSW,203,1.0,5.0,38,0.00,,---,0.00,VWS V14.01,2013-07-05 07:46:00,
2013-07-05 00:51:00,87.8,59.1,29.62,SSW,203,1.0,5.0,38,0.00,,---,0.00,VWS V14.01,2013-07-05 07:51:00,
2013-07-05 00:56:00,87.6,58.9,29.62,SW,215,1.0,5.0,38,0.00,,---,0.00,VWS V14.01,2013-07-05 07:56:00,
2013-07-05 01:00:00,87.5,59.5,29.62,SSW,210,0.0,5.0,39,0.00,,---,0.00,VWS V14.01,2013-07-05 08:00:00,
2013-07-05 01:01:00,87.5,58.8,29.62,SW,228,1.0,5.0,38,0.00,,---,0.00,VWS V14.01,2013-07-05 08:01:00,
2013-07-05 01:06:00,87.5,59.5,29.62,SSW,195,0.0,2.0,39,0.00,,---,0.00,VWS V14.01,2013-07-05 08:06:00,
2013-07-05 01:11:00,87.4,59.4,29.62,SW,229,0.0,2.0,39,0.00,,---,0.00,VWS V14.01,2013-07-05 08:11:00,
2013-07-05 01:16:00,87.3,59.3,29.62,SW,233,0.0,2.0,39,0.00,,---,0.00,VWS V14.01,2013-07-05 08:16:00,
2013-07-05 01:22:00,87.1,59.2,29.62,SW,224,0.0,2.0,39,0.00,,---,0.00,VWS V14.01,2013-07-05 08:22:00,
2013-07-05 01:27:00,87.0,59.1,29.62,SW,225,1.0,2.0,39,0.00,,---,0.00,VWS V14.01,2013-07-05 08:27:00,
2013-07-05 01:30:00,86.9,59.0,29.62,WSW,243,1.0,2.0,39,0.00,,---,0.00,VWS V14.01,2013-07-05 08:30:00,
2013-07-05 01:32:00,87.0,59.1,29.62,WSW,245,1.0,2.0,39,0.00,,---,0.00,VWS V14.01,2013-07-05 08:32:00,
2013-07-05 01:37:00,86.9,59.0,29.62,WSW,238,0.0,2.0,39,0.00,,---,0.00,VWS V14.01,2013-07-05 08:37:00,
2013-07-05 01:42:00,86.8,59.6,29.62,SW,222,2.0,3.0,40,0.00,,---,0.00,VWS V14.01,2013-07-05 08:42:00,
2013-07-05 01:47:00,86.7,59.5,29.62,SW,225,2.0,3.0,40,0.00,,---,0.00,VWS V14.01,2013-07-05 08:47:00,
2013-07-05 01:52:00,86.8,59.6,29.62,WSW,246,1.0,4.0,40,0.00,,---,0.00,VWS V14.01,2013-07-05 08:52:00,
2013-07-05 01:57:00,86.7,59.5,29.62,West,262,0.0,4.0,40,0.00,,---,0.00,VWS V14.01,2013-07-05 08:57:00,
2013-07-05 02:00:00,86.6,59.4,29.62,West,259,0.0,4.0,40,0.00,,---,0.00,VWS V14.01,2013-07-05 09:00:00,
2013-07-05 02:02:00,86.6,59.4,29.62,West,259,0.0,4.0,40,0.00,,---,0.00,VWS V14.01,2013-07-05 09:02:00,
2013-07-05 02:08:00,86.4,59.2,29.62,SSW,205,0.0,1.0,40,0.00,,---,0.00,VWS V14.01,2013-07-05 09:08:00,
2013-07-05 02:13:00,86.3,59.8,29.62,SSW,205,0.0,1.0,41,0.00,,---,0.00,VWS V14.01,2013-07-05 09:13:00,
2013-07-05 02:18:00,86.3,59.2,29.62,WSW,250,0.0,1.0,40,0.00,,---,0.00,VWS V14.01,2013-07-05 09:18:00,
2013-07-05 02:23:00,86.2,59.1,29.62,WSW,248,0.0,1.0,40,0.00,,---,0.00,VWS V14.01,2013-07-05 09:23:00,
2013-07-05 02:28:00,86.0,58.9,29.62,WSW,240,1.0,2.0,40,0.00,,---,0.00,VWS V14.01,2013-07-05 09:28:00,
2013-07-05 02:30:00,85.8,59.4,29.62,WSW,242,1.0,2.0,41,0.00,,---,0.00,VWS V14.01,2013-07-05 09:30:00,
2013-07-05 02:33:00,85.8,59.4,29.62,WSW,241,1.0,1.0,41,0.00,,---,0.00,VWS V14.01,2013-07-05 09:33:00,
2013-07-05 02:38:00,85.5,59.1,29.62,West,264,0.0,1.0,41,0.00,,---,0.00,VWS V14.01,2013-07-05 09:38:00,
2013-07-05 02:43:00,85.4,59.0,29.62,West,264,0.0,1.0,41,0.00,,---,0.00,VWS V14.01,2013-07-05 09:43:00,
2013-07-05 02:48:00,85.3,59.0,29.62,WSW,255,0.0,1.0,41,0.00,,---,0.00,VWS V14.01,2013-07-05 09:48:00,
2013-07-05 02:54:00,85.4,59.0,29.62,West,269,2.0,3.0,41,0.00,,---,0.00,VWS V14.01,2013-07-05 09:54:00,
2013-07-05 02:59:00,85.3,59.0,29.62,WSW,252,2.0,4.0,41,0.00,,---,0.00,VWS V14.01,2013-07-05 09:59:00,
2013-07-05 03:00:00,85.2,58.9,29.62,West,264,1.0,5.0,41,0.00,,---,0.00,VWS V14.01,2013-07-05 10:00:00,
2013-07-05 03:05:00,85.1,58.8,29.62,West,269,3.0,3.0,41,0.00,,---,0.00,VWS V14.01,2013-07-05 10:05:00,
2013-07-05 03:10:00,85.0,58.7,29.62,WSW,255,3.0,5.0,41,0.00,,---,0.00,VWS V14.01,2013-07-05 10:10:00,
2013-07-05 03:15:00,84.9,58.6,29.61,West,262,6.0,6.0,41,0.00,,---,0.00,VWS V14.01,2013-07-05 10:15:00,
2013-07-05 03:21:00,85.0,58.7,29.61,West,266,2.0,6.0,41,0.00,,---,0.00,VWS V14.01,2013-07-05 10:21:00,
2013-07-05 03:26:00,85.1,58.8,29.61,West,263,2.0,6.0,41,0.00,,---,0.00,VWS V14.01,2013-07-05 10:26:00,
2013-07-05 03:30:00,85.1,58.8,29.62,WSW,250,1.0,6.0,41,0.00,,---,0.00,VWS V14.01,2013-07-05 10:30:00,
2013-07-05 03:31:00,85.0,58.7,29.61,West,275,2.0,6.0,41,0.00,,---,0.00,VWS V14.01,2013-07-05 10:31:00,
2013-07-05 03:36:00,85.2,58.2,29.61,West,277,2.0,2.0,40,0.00,,---,0.00,VWS V14.01,2013-07-05 10:36:00,
2013-07-05 03:41:00,85.1,58.1,29.62,West,270,0.0,3.0,40,0.00,,---,0.00,VWS V14.01,2013-07-05 10:41:00,
2013-07-05 03:46:00,84.8,58.5,29.62,SE,129,0.0,3.0,41,0.00,,---,0.00,VWS V14.01,2013-07-05 10:46:00,
2013-07-05 03:51:00,84.5,58.2,29.62,SSE,148,0.0,3.0,41,0.00,,---,0.00,VWS V14.01,2013-07-05 10:51:00,
2013-07-05 03:56:00,84.3,58.1,29.62,SSE,147,0.0,3.0,41,0.00,,---,0.00,VWS V14.01,2013-07-05 10:56:00,
2013-07-05 04:00:00,84.5,58.9,29.62,SW,236,0.0,3.0,42,0.00,,---,0.00,VWS V14.01,2013-07-05 11:00:00,
2013-07-05 04:01:00,84.5,58.2,29.62,SW,236,0.0,3.0,41,0.00,,---,0.00,VWS V14.01,2013-07-05 11:01:00,
2013-07-05 04:07:00,84.3,58.7,29.62,SW,236,0.0,0.0,42,0.00,,---,0.00,VWS V14.01,2013-07-05 11:07:00,
2013-07-05 04:12:00,83.9,58.4,29.62,SW,236,0.0,0.0,42,0.00,,---,0.00,VWS V14.01,2013-07-05 11:12:00,
2013-07-05 04:17:00,83.5,58.7,29.62,SW,236,0.0,0.0,43,0.00,,---,0.00,VWS V14.01,2013-07-05 11:17:00,
2013-07-05 04:22:00,83.3,58.5,29.62,WSW,237,0.0,0.0,43,0.00,,---,0.00,VWS V14.01,2013-07-05 11:22:00,
2013-07-05 04:27:00,83.2,58.4,29.62,SW,236,0.0,0.0,43,0.00,,---,0.00,VWS V14.01,2013-07-05 11:27:00,
2013-07-05 04:30:00,83.4,58.6,29.61,SW,236,0.0,0.0,43,0.00,,---,0.00,VWS V14.01,2013-07-05 11:30:00,
2013-07-05 04:32:00,83.4,58.6,29.61,SW,236,0.0,0.0,43,0.00,,---,0.00,VWS V14.01,2013-07-05 11:32:00,
2013-07-05 04:37:00,83.5,58.7,29.61,SW,236,0.0,0.0,43,0.00,,---,0.00,VWS V14.01,2013-07-05 11:37:00,
2013-07-05 04:43:00,83.3,58.5,29.62,SW,236,0.0,0.0,43,0.00,,---,0.00,VWS V14.01,2013-07-05 11:43:00,
2013-07-05 04:48:00,83.0,58.9,29.62,WSW,238,0.0,0.0,44,0.00,,---,0.00,VWS V14.01,2013-07-05 11:48:00,
2013-07-05 04:53:00,83.3,58.5,29.62,WSW,238,0.0,0.0,43,0.00,,---,0.00,VWS V14.01,2013-07-05 11:53:00,
2013-07-05 04:58:00,83.1,58.3,29.62,WSW,238,0.0,0.0,43,0.00,,---,0.00,VWS V14.01,2013-07-05 11:58:00,
2013-07-05 05:00:00,82.9,58.8,29.62,WSW,238,0.0,0.0,44,0.00,,---,0.00,VWS V14.01,2013-07-05 12:00:00,
2013-07-05 05:03:00,82.8,58.7,29.62,WSW,238,0.0,0.0,44,0.00,,---,0.00,VWS V14.01,2013-07-05 12:03:00,
2013-07-05 05:09:00,82.7,58.6,29.62,WSW,238,0.0,0.0,44,0.00,,---,0.00,VWS V14.01,2013-07-05 12:09:00,
2013-07-05 05:14:00,82.7,58.6,29.62,WSW,245,0.0,0.0,44,0.00,,---,0.00,VWS V14.01,2013-07-05 12:14:00,
2013-07-05 05:19:00,82.5,59.0,29.62,WSW,246,0.0,0.0,45,0.00,,---,0.00,VWS V14.01,2013-07-05 12:19:00,
2013-07-05 05:24:00,82.3,58.9,29.62,North,5,0.0,0.0,45,0.00,,---,0.00,VWS V14.01,2013-07-05 12:24:00,
2013-07-05 05:29:00,82.4,59.0,29.62,NNW,347,1.0,4.0,45,0.00,,---,0.00,VWS V14.01,2013-07-05 12:29:00,
2013-07-05 05:30:00,82.3,58.9,29.62,North,349,0.0,4.0,45,0.00,,---,0.00,VWS V14.01,2013-07-05 12:30:00,
2013-07-05 05:34:00,82.2,58.8,29.62,North,349,0.0,0.0,45,0.00,,---,0.00,VWS V14.01,2013-07-05 12:34:00,
2013-07-05 05:39:00,82.1,59.3,29.63,NNE,12,0.0,0.0,46,0.00,,---,0.00,VWS V14.01,2013-07-05 12:39:00,
2013-07-05 05:45:00,82.1,59.3,29.63,NNE,12,0.0,0.0,46,0.00,,---,0.00,VWS V14.01,2013-07-05 12:45:00,
2013-07-05 05:50:00,82.2,59.4,29.63,North,11,0.0,0.0,46,0.00,,---,0.00,VWS V14.01,2013-07-05 12:50:00,
2013-07-05 05:55:00,82.2,59.4,29.64,North,354,0.0,0.0,46,0.00,,---,0.00,VWS V14.01,2013-07-05 12:55:00,
2013-07-05 06:00:00,82.1,59.3,29.64,North,354,0.0,0.0,46,0.00,,---,0.00,VWS V14.01,2013-07-05 13:00:00,
2013-07-05 06:06:00,81.9,59.1,29.64,North,350,0.0,0.0,46,0.00,,---,0.00,VWS V14.01,2013-07-05 13:06:00,
2013-07-05 06:11:00,82.1,59.3,29.64,West,268,2.0,3.0,46,0.00,,---,0.00,VWS V14.01,2013-07-05 13:11:00,
2013-07-05 06:16:00,82.3,59.5,29.64,West,266,0.0,3.0,46,0.00,,---,0.00,VWS V14.01,2013-07-05 13:16:00,
2013-07-05 06:21:00,82.6,59.8,29.65,WSW,253,1.0,3.0,46,0.00,,---,0.00,VWS V14.01,2013-07-05 13:21:00,
2013-07-05 06:26:00,82.8,59.3,29.65,WSW,238,0.0,3.0,45,0.00,,---,0.00,VWS V14.01,2013-07-05 13:26:00,
2013-07-05 06:30:00,83.1,59.6,29.65,West,271,0.0,3.0,45,0.00,,---,0.00,VWS V14.01,2013-07-05 13:30:00,
2013-07-05 06:31:00,83.1,59.6,29.65,West,278,2.0,3.0,45,0.00,,---,0.00,VWS V14.01,2013-07-05 13:31:00,
2013-07-05 06:37:00,83.2,59.7,29.66,WSW,250,0.0,1.0,45,0.00,,---,0.00,VWS V14.01,2013-07-05 13:37:00,
2013-07-05 06:42:00,83.4,59.2,29.66,WSW,257,4.0,4.0,44,0.00,,---,0.00,VWS V14.01,2013-07-05 13:42:00,
2013-07-05 06:47:00,83.6,59.4,29.66,West,263,2.0,4.0,44,0.00,,---,0.00,VWS V14.01,2013-07-05 13:47:00,
2013-07-05 06:52:00,83.8,59.6,29.66,SW,232,1.0,4.0,44,0.00,,---,0.00,VWS V14.01,2013-07-05 13:52:00,
2013-07-05 06:57:00,84.0,59.8,29.66,WSW,253,2.0,6.0,44,0.00,,---,0.00,VWS V14.01,2013-07-05 13:57:00,
2013-07-05 07:00:00,84.3,59.4,29.66,WSW,239,1.0,6.0,43,0.00,,---,0.00,VWS V14.01,2013-07-05 14:00:00,
2013-07-05 07:02:00,84.3,59.4,29.66,West,259,3.0,6.0,43,0.00,,---,0.00,VWS V14.01,2013-07-05 14:02:00,
2013-07-05 07:07:00,84.4,59.5,29.67,West,271,2.0,4.0,43,0.00,,---,0.00,VWS V14.01,2013-07-05 14:07:00,
2013-07-05 07:13:00,84.6,59.7,29.67,NNW,330,1.0,4.0,43,0.00,,---,0.00,VWS V14.01,2013-07-05 14:13:00,
2013-07-05 07:18:00,85.0,59.4,29.67,WNW,289,1.0,4.0,42,0.00,,---,0.00,VWS V14.01,2013-07-05 14:18:00,
2013-07-05 07:23:00,85.0,60.0,29.67,West,262,3.0,4.0,43,0.00,,---,0.00,VWS V14.01,2013-07-05 14:23:00,
2013-07-05 07:28:00,84.9,59.9,29.67,West,269,2.0,5.0,43,0.00,,---,0.00,VWS V14.01,2013-07-05 14:28:00,
2013-07-05 07:30:00,85.0,59.4,29.67,West,269,1.0,5.0,42,0.00,,---,0.00,VWS V14.01,2013-07-05 14:30:00,
2013-07-05 07:33:00,85.0,59.4,29.67,West,281,4.0,5.0,42,0.00,,---,0.00,VWS V14.01,2013-07-05 14:33:00,
2013-07-05 07:38:00,85.2,59.5,29.67,West,280,2.0,5.0,42,0.00,,---,0.00,VWS V14.01,2013-07-05 14:38:00,
2013-07-05 07:43:00,85.5,59.8,29.68,WSW,238,0.0,5.0,42,0.00,,---,0.00,VWS V14.01,2013-07-05 14:43:00,
2013-07-05 07:48:00,85.8,59.4,29.68,West,279,2.0,6.0,41,0.00,,---,0.00,VWS V14.01,2013-07-05 14:48:00,
2013-07-05 07:54:00,86.8,60.3,29.68,WNW,289,1.0,6.0,41,0.00,,---,0.00,VWS V14.01,2013-07-05 14:54:00,
2013-07-05 07:59:00,87.8,59.8,29.68,WNW,284,0.0,6.0,39,0.00,,---,0.00,VWS V14.01,2013-07-05 14:59:00,
2013-07-05 08:00:00,88.4,60.3,29.68,WSW,255,3.0,6.0,39,0.00,,---,0.00,VWS V14.01,2013-07-05 15:00:00,
2013-07-05 08:04:00,88.5,59.7,29.68,West,274,2.0,4.0,38,0.00,,---,0.00,VWS V14.01,2013-07-05 15:04:00,
2013-07-05 08:09:00,89.3,60.4,29.68,WSW,256,1.0,4.0,38,0.00,,---,0.00,VWS V14.01,2013-07-05 15:09:00,
2013-07-05 08:15:00,90.0,60.3,29.68,SW,217,0.0,4.0,37,0.00,,---,0.00,VWS V14.01,2013-07-05 15:15:00,
2013-07-05 08:20:00,90.4,59.8,29.68,SSE,155,1.0,4.0,36,0.00,,---,0.00,VWS V14.01,2013-07-05 15:20:00,
2013-07-05 08:25:00,90.8,60.2,29.68,WSW,238,0.0,4.0,36,0.00,,---,0.00,VWS V14.01,2013-07-05 15:25:00,
2013-07-05 08:30:00,90.1,60.3,29.68,WSW,256,1.0,4.0,37,0.00,,---,0.00,VWS V14.01,2013-07-05 15:30:00,
2013-07-05 08:35:00,89.3,60.4,29.68,West,277,3.0,4.0,38,0.00,,---,0.00,VWS V14.01,2013-07-05 15:35:00,
2013-07-05 08:40:00,89.2,60.3,29.68,WSW,241,1.0,4.0,38,0.00,,---,0.00,VWS V14.01,2013-07-05 15:40:00,
2013-07-05 08:45:00,89.5,59.8,29.68,North,11,0.0,4.0,37,0.00,,---,0.00,VWS V14.01,2013-07-05 15:45:00,
2013-07-05 08:50:00,90.3,60.5,29.68,North,11,0.0,4.0,37,0.00,,---,0.00,VWS V14.01,2013-07-05 15:50:00,
2013-07-05 08:55:00,91.5,60.8,29.68,SSW,200,0.0,4.0,36,0.00,,---,0.00,VWS V14.01,2013-07-05 15:55:00,
2013-07-05 09:00:00,91.5,60.8,29.68,West,278,1.0,4.0,36,0.00,,---,0.00,VWS V14.01,2013-07-05 16:00:00,
2013-07-05 09:05:00,90.9,60.3,29.68,West,263,0.0,2.0,36,0.00,,---,0.00,VWS V14.01,2013-07-05 16:05:00,
2013-07-05 09:10:00,91.3,60.6,29.68,SW,222,3.0,5.0,36,0.00,,---,0.00,VWS V14.01,2013-07-05 16:10:00,
2013-07-05 09:15:00,91.3,60.6,29.68,WSW,255,2.0,8.0,36,0.00,,---,0.00,VWS V14.01,2013-07-05 16:15:00,
2013-07-05 09:20:00,91.4,60.7,29.68,West,269,7.0,9.0,36,0.00,,---,0.00,VWS V14.01,2013-07-05 16:20:00,
2013-07-05 09:25:00,91.8,61.1,29.68,West,276,3.0,9.0,36,0.00,,---,0.00,VWS V14.01,2013-07-05 16:25:00,
2013-07-05 09:30:00,91.8,61.1,29.68,SW,222,3.0,9.0,36,0.00,,---,0.00,VWS V14.01,2013-07-05 16:30:00,
2013-07-05 09:35:00,92.1,61.3,29.68,NNW,337,3.0,5.0,36,0.00,,---,0.00,VWS V14.01,2013-07-05 16:35:00,
2013-07-05 09:40:00,93.1,61.4,29.67,West,278,2.0,5.0,35,0.00,,---,0.00,VWS V14.01,2013-07-05 16:40:00,
2013-07-05 09:45:00,93.8,60.4,29.68,NW,312,0.0,5.0,33,0.00,,---,0.00,VWS V14.01,2013-07-05 16:45:00,
2013-07-05 09:46:00,93.8,60.4,29.68,NW,314,1.0,5.0,33,0.00,,---,0.00,VWS V14.01,2013-07-05 16:46:00,
2013-07-05 09:51:00,93.4,60.9,29.67,NW,307,2.0,6.0,34,0.00,,---,0.00,VWS V14.01,2013-07-05 16:51:00,
2013-07-05 09:56:00,93.4,60.9,29.67,SW,218,3.0,8.0,34,0.00,,---,0.00,VWS V14.01,2013-07-05 16:56:00,
2013-07-05 10:00:00,93.6,61.0,29.67,NW,307,2.0,8.0,34,0.00,,---,0.00,VWS V14.01,2013-07-05 17:00:00,
2013-07-05 10:01:00,93.4,60.9,29.67,NNW,330,2.0,8.0,34,0.00,,---,0.00,VWS V14.01,2013-07-05 17:01:00,
2013-07-05 10:02:00,93.6,61.0,29.67,NNE,17,2.0,8.0,34,0.00,,---,0.00,VWS V14.01,2013-07-05 17:02:00,
2013-07-05 10:08:00,93.9,60.5,29.67,WSW,240,1.0,6.0,33,0.00,,---,0.00,VWS V14.01,2013-07-05 17:08:00,
2013-07-05 10:13:00,94.5,61.0,29.67,SW,231,2.0,6.0,33,0.00,,---,0.00,VWS V14.01,2013-07-05 17:13:00,
2013-07-05 10:18:00,94.0,60.5,29.67,WSW,256,3.0,9.0,33,0.00,,---,0.00,VWS V14.01,2013-07-05 17:18:00,
2013-07-05 10:23:00,94.4,60.9,29.67,NW,318,2.0,9.0,33,0.00,,---,0.00,VWS V14.01,2013-07-05 17:23:00,
2013-07-05 10:28:00,94.3,60.8,29.67,West,276,3.0,9.0,33,0.00,,---,0.00,VWS V14.01,2013-07-05 17:28:00,
2013-07-05 10:30:00,93.7,61.1,29.67,SW,225,3.0,9.0,34,0.00,,---,0.00,VWS V14.01,2013-07-05 17:30:00,
2013-07-05 10:33:00,93.6,60.2,29.67,SW,236,1.0,5.0,33,0.00,,---,0.00,VWS V14.01,2013-07-05 17:33:00,
2013-07-05 10:38:00,93.9,61.3,29.67,SSW,212,2.0,5.0,34,0.00,,---,0.00,VWS V14.01,2013-07-05 17:38:00,
2013-07-05 10:44:00,94.3,60.8,29.66,NE,55,0.0,5.0,33,0.00,,---,0.00,VWS V14.01,2013-07-05 17:44:00,
2013-07-05 10:49:00,96.0,61.4,29.66,West,281,0.0,5.0,32,0.00,,---,0.00,VWS V14.01,2013-07-05 17:49:00,
2013-07-05 10:54:00,96.6,60.1,29.66,West,259,6.0,6.0,30,0.00,,---,0.00,VWS V14.01,2013-07-05 17:54:00,
2013-07-05 10:59:00,96.0,61.4,29.66,SW,229,3.0,10.0,32,0.00,,---,0.00,VWS V14.01,2013-07-05 17:59:00,
2013-07-05 11:00:00,96.8,61.2,29.66,SW,226,6.0,10.0,31,0.00,,---,0.00,VWS V14.01,2013-07-05 18:00:00,
2013-07-05 11:04:00,96.8,61.2,29.66,West,278,4.0,6.0,31,0.00,,---,0.00,VWS V14.01,2013-07-05 18:04:00,
2013-07-05 11:09:00,95.4,60.0,29.66,West,263,3.0,8.0,31,0.00,,---,0.00,VWS V14.01,2013-07-05 18:09:00,
2013-07-05 11:14:00,95.4,60.9,29.66,WSW,239,4.0,8.0,32,0.00,,---,0.00,VWS V14.01,2013-07-05 18:14:00,
2013-07-05 11:19:00,95.2,60.7,29.66,WSW,252,3.0,10.0,32,0.00,,---,0.00,VWS V14.01,2013-07-05 18:19:00,
2013-07-05 11:24:00,95.9,60.4,29.66,West,262,4.0,10.0,31,0.00,,---,0.00,VWS V14.01,2013-07-05 18:24:00,
2013-07-05 11:30:00,97.0,60.5,29.66,West,273,5.0,10.0,30,0.00,,---,0.00,VWS V14.01,2013-07-05 18:30:00,
2013-07-05 11:35:00,97.2,60.6,29.66,West,269,1.0,4.0,30,0.00,,---,0.00,VWS V14.01,2013-07-05 18:35:00,
2013-07-05 11:40:00,97.5,60.9,29.66,WSW,253,7.0,13.0,30,0.00,,---,0.00,VWS V14.01,2013-07-05 18:40:00,
2013-07-05 11:45:00,96.7,60.2,29.65,WSW,252,3.0,13.0,30,0.00,,---,0.00,VWS V14.01,2013-07-05 18:45:00,
2013-07-05 11:50:00,97.9,60.3,29.65,West,264,3.0,13.0,29,0.00,,---,0.00,VWS V14.01,2013-07-05 18:50:00,
2013-07-05 11:55:00,97.9,60.3,29.65,NNW,333,1.0,13.0,29,0.00,,---,0.00,VWS V14.01,2013-07-05 18:55:00,
2013-07-05 12:00:00,97.5,59.9,29.64,West,260,3.0,13.0,29,0.00,,---,0.00,VWS V14.01,2013-07-05 19:00:00,
2013-07-05 12:05:00,98.3,60.6,29.64,West,275,2.0,6.0,29,0.00,,---,0.00,VWS V14.01,2013-07-05 19:05:00,
2013-07-05 12:10:00,99.2,60.4,29.64,WNW,293,6.0,8.0,28,0.00,,---,0.00,VWS V14.01,2013-07-05 19:10:00,
2013-07-05 12:15:00,98.6,58.9,29.64,West,281,3.0,9.0,27,0.00,,---,0.00,VWS V14.01,2013-07-05 19:15:00,
2013-07-05 12:20:00,99.1,59.3,29.63,North,9,1.0,9.0,27,0.00,,---,0.00,VWS V14.01,2013-07-05 19:20:00,
2013-07-05 12:25:00,99.1,60.3,29.63,WNW,283,7.0,14.0,28,0.00,,---,0.00,VWS V14.01,2013-07-05 19:25:00,
2013-07-05 12:30:00,97.3,59.8,29.63,SW,224,8.0,14.0,29,0.00,,---,0.00,VWS V14.01,2013-07-05 19:30:00,
2013-07-05 12:35:00,96.4,59.9,29.62,NNE,15,0.0,4.0,30,0.00,,---,0.00,VWS V14.01,2013-07-05 19:35:00,
2013-07-05 12:41:00,96.9,59.4,29.62,West,261,4.0,6.0,29,0.00,,---,0.00,VWS V14.01,2013-07-05 19:41:00,
2013-07-05 12:46:00,95.7,59.3,29.61,SSW,203,1.0,7.0,30,0.00,,---,0.00,VWS V14.01,2013-07-05 19:46:00,
2013-07-05 12:51:00,95.6,59.2,29.61,WSW,242,11.0,11.0,30,0.00,,---,0.00,VWS V14.01,2013-07-05 19:51:00,
2013-07-05 12:56:00,96.0,59.6,29.61,WSW,250,3.0,11.0,30,0.00,,---,0.00,VWS V14.01,2013-07-05 19:56:00,
2013-07-05 13:00:00,95.2,58.9,29.61,WNW,292,3.0,11.0,30,0.00,,---,0.00,VWS V14.01,2013-07-05 20:00:00,
2013-07-05 13:01:00,95.6,58.3,29.61,West,274,7.0,11.0,29,0.00,,---,0.00,VWS V14.01,2013-07-05 20:01:00,
2013-07-05 13:06:00,95.2,58.9,29.61,WSW,249,3.0,7.0,30,0.00,,---,0.00,VWS V14.01,2013-07-05 20:06:00,
2013-07-05 13:11:00,94.9,58.7,29.61,West,281,6.0,8.0,30,0.00,,---,0.00,VWS V14.01,2013-07-05 20:11:00,
2013-07-05 13:16:00,95.0,58.7,29.61,West,277,4.0,8.0,30,0.00,,---,0.00,VWS V14.01,2013-07-05 20:16:00,
2013-07-05 13:21:00,94.6,58.4,29.61,WNW,291,5.0,9.0,30,0.00,,---,0.00,VWS V14.01,2013-07-05 20:21:00,
2013-07-05 13:26:00,94.5,58.3,29.61,NE,44,5.0,9.0,30,0.00,,---,0.00,VWS V14.01,2013-07-05 20:26:00,
2013-07-05 13:30:00,95.0,58.7,29.61,NNE,18,1.0,9.0,30,0.00,,---,0.00,VWS V14.01,2013-07-05 20:30:00,
2013-07-05 13:31:00,95.0,58.7,29.61,NNE,16,3.0,9.0,30,0.00,,---,0.00,VWS V14.01,2013-07-05 20:31:00,
2013-07-05 13:36:00,95.0,58.7,29.61,NNW,338,2.0,6.0,30,0.00,,---,0.00,VWS V14.01,2013-07-05 20:36:00,
2013-07-05 13:41:00,94.9,58.7,29.61,North,358,2.0,6.0,30,0.00,,---,0.00,VWS V14.01,2013-07-05 20:41:00,
2013-07-05 13:47:00,94.9,58.7,29.60,NNE,20,5.0,7.0,30,0.00,,---,0.00,VWS V14.01,2013-07-05 20:47:00,
2013-07-05 13:52:00,94.8,58.6,29.59,North,5,0.0,7.0,30,0.00,,---,0.00,VWS V14.01,2013-07-05 20:52:00,
2013-07-05 13:57:00,94.9,58.7,29.60,ENE,67,1.0,7.0,30,0.00,,---,0.00,VWS V14.01,2013-07-05 20:57:00,
2013-07-05 14:00:00,93.8,60.4,29.61,South,170,7.0,7.0,33,0.00,,---,0.00,VWS V14.01,2013-07-05 21:00:00,
2013-07-05 14:02:00,94.0,60.5,29.61,SW,219,2.0,7.0,33,0.00,,---,0.00,VWS V14.01,2013-07-05 21:02:00,
2013-07-05 14:07:00,93.3,59.1,29.61,NW,323,1.0,11.0,32,0.00,,---,0.00,VWS V14.01,2013-07-05 21:07:00,
2013-07-05 14:12:00,93.4,58.3,29.59,WNW,284,1.0,11.0,31,0.00,,---,0.00,VWS V14.01,2013-07-05 21:12:00,
2013-07-05 14:17:00,93.7,58.5,29.60,NNE,27,2.0,11.0,31,0.00,,---,0.00,VWS V14.01,2013-07-05 21:17:00,
2013-07-05 14:22:00,93.6,57.5,29.61,West,278,3.0,11.0,30,0.00,,---,0.00,VWS V14.01,2013-07-05 21:22:00,
2013-07-05 14:27:00,93.2,58.1,29.61,WSW,245,3.0,11.0,31,0.00,,---,0.00,VWS V14.01,2013-07-05 21:27:00,
2013-07-05 14:30:00,93.1,58.0,29.62,WNW,288,0.0,11.0,31,0.00,,---,0.00,VWS V14.01,2013-07-05 21:30:00,
2013-07-05 14:32:00,93.1,58.0,29.62,WNW,288,0.0,11.0,31,0.00,,---,0.00,VWS V14.01,2013-07-05 21:32:00,
2013-07-05 14:37:00,92.9,57.8,29.62,WNW,288,0.0,1.0,31,0.00,,---,0.00,VWS V14.01,2013-07-05 21:37:00,
2013-07-05 14:42:00,92.7,58.5,29.63,SSW,198,1.0,2.0,32,0.00,,---,0.00,VWS V14.01,2013-07-05 21:42:00,
2013-07-05 14:47:00,92.3,59.1,29.63,South,181,4.0,4.0,33,0.00,,---,0.00,VWS V14.01,2013-07-05 21:47:00,
2013-07-05 14:52:00,91.9,59.5,29.63,South,169,1.0,5.0,34,0.00,,---,0.00,VWS V14.01,2013-07-05 21:52:00,
2013-07-05 14:57:00,91.1,61.2,29.63,SW,222,13.0,20.0,37,0.00,,---,0.00,VWS V14.01,2013-07-05 21:57:00,
2013-07-05 15:00:00,87.2,62.0,29.63,SSW,193,4.0,22.0,43,0.00,,---,0.00,VWS V14.01,2013-07-05 22:00:00,
2013-07-05 15:03:00,87.2,62.0,29.63,South,186,8.0,22.0,43,0.00,,---,0.00,VWS V14.01,2013-07-05 22:03:00,
2013-07-05 15:08:00,86.8,61.0,29.63,NE,50,2.0,10.0,42,0.00,,---,0.00,VWS V14.01,2013-07-05 22:08:00,
2013-07-05 15:13:00,87.3,60.8,29.63,South,186,5.0,10.0,41,0.00,,---,0.00,VWS V14.01,2013-07-05 22:13:00,
2013-07-05 15:18:00,87.1,61.2,29.63,South,183,2.0,10.0,42,0.00,,---,0.00,VWS V14.01,2013-07-05 22:18:00,
2013-07-05 15:23:00,86.3,61.2,29.64,SE,146,3.0,11.0,43,0.00,,---,0.00,VWS V14.01,2013-07-05 22:23:00,
2013-07-05 15:28:00,85.7,61.3,29.64,SSW,200,1.0,11.0,44,0.00,,---,0.00,VWS V14.01,2013-07-05 22:28:00,
2013-07-05 15:30:00,85.5,61.1,29.64,SSE,167,3.0,11.0,44,0.00,,---,0.00,VWS V14.01,2013-07-05 22:30:00,
2013-07-05 15:33:00,85.5,61.1,29.64,SSE,158,4.0,4.0,44,0.00,,---,0.00,VWS V14.01,2013-07-05 22:33:00,
2013-07-05 15:38:00,85.2,61.5,29.64,South,188,8.0,10.0,45,0.00,,---,0.00,VWS V14.01,2013-07-05 22:38:00,
2013-07-05 15:44:00,85.0,61.3,29.64,South,190,3.0,10.0,45,0.00,,---,0.00,VWS V14.01,2013-07-05 22:44:00,
2013-07-05 15:49:00,85.2,61.5,29.64,South,176,6.0,13.0,45,0.00,,---,0.00,VWS V14.01,2013-07-05 22:49:00,
2013-07-05 15:54:00,85.2,61.5,29.64,SW,219,7.0,13.0,45,0.00,,---,0.00,VWS V14.01,2013-07-05 22:54:00,
2013-07-05 15:59:00,85.1,61.4,29.63,ESE,120,5.0,14.0,45,0.00,,---,0.00,VWS V14.01,2013-07-05 22:59:00,
2013-07-05 16:00:00,85.0,61.9,29.63,SE,141,4.0,14.0,46,0.00,,---,0.00,VWS V14.01,2013-07-05 23:00:00,
2013-07-05 16:04:00,85.0,61.9,29.63,SSW,207,4.0,9.0,46,0.00,,---,0.00,VWS V14.01,2013-07-05 23:04:00,
2013-07-05 16:09:00,84.8,62.3,29.63,SE,125,9.0,9.0,47,0.00,,---,0.00,VWS V14.01,2013-07-05 23:09:00,
2013-07-05 16:14:00,84.6,62.8,29.63,South,172,4.0,11.0,48,0.00,,---,0.00,VWS V14.01,2013-07-05 23:14:00,
2013-07-05 16:19:00,84.3,63.1,29.63,ESE,121,5.0,11.0,49,0.00,,---,0.00,VWS V14.01,2013-07-05 23:19:00,
2013-07-05 16:24:00,83.7,63.7,29.63,SSW,211,6.0,11.0,51,0.00,,---,0.00,VWS V14.01,2013-07-05 23:24:00,
2013-07-05 16:29:00,83.3,63.3,29.63,SW,224,4.0,11.0,51,0.00,,---,0.00,VWS V14.01,2013-07-05 23:29:00,
2013-07-05 16:30:00,83.2,62.7,29.62,South,175,6.0,11.0,50,0.00,,---,0.00,VWS V14.01,2013-07-05 23:30:00,
2013-07-05 16:34:00,83.2,63.2,29.62,South,172,4.0,7.0,51,0.00,,---,0.00,VWS V14.01,2013-07-05 23:34:00,
2013-07-05 16:39:00,83.2,63.2,29.62,SSE,163,5.0,7.0,51,0.00,,---,0.00,VWS V14.01,2013-07-05 23:39:00,
2013-07-05 16:44:00,82.9,63.5,29.62,SSE,156,2.0,7.0,52,0.00,,---,0.00,VWS V14.01,2013-07-05 23:44:00,
2013-07-05 16:49:00,82.7,64.9,29.62,SW,217,1.0,7.0,55,0.00,,---,0.00,VWS V14.01,2013-07-05 23:49:00,
2013-07-05 16:55:00,82.2,65.5,29.61,WSW,248,1.0,7.0,57,0.00,,---,0.00,VWS V14.01,2013-07-05 23:55:00,
2013-07-05 17:00:00,81.4,66.2,29.60,WSW,246,0.0,7.0,60,0.00,,---,0.00,VWS V14.01,2013-07-06 00:00:00,
2013-07-05 17:05:00,80.8,66.1,29.60,WSW,246,0.0,0.0,61,0.00,,---,0.00,VWS V14.01,2013-07-06 00:05:00,
2013-07-05 17:10:00,80.6,65.9,29.59,WSW,250,0.0,0.0,61,0.00,,---,0.00,VWS V14.01,2013-07-06 00:10:00,
2013-07-05 17:15:00,80.8,65.2,29.58,WSW,249,0.0,0.0,59,0.00,,---,0.00,VWS V14.01,2013-07-06 00:15:00,
2013-07-05 17:20:00,81.2,66.9,29.57,West,279,0.0,0.0,62,0.00,,---,0.00,VWS V14.01,2013-07-06 00:20:00,
2013-07-05 17:25:00,80.9,66.2,29.57,WSW,246,3.0,6.0,61,0.00,,---,0.00,VWS V14.01,2013-07-06 00:25:00,
2013-07-05 17:30:00,80.7,66.0,29.56,NW,316,0.0,6.0,61,0.00,,---,0.00,VWS V14.01,2013-07-06 00:30:00,
2013-07-05 17:35:00,80.7,66.0,29.56,NW,324,2.0,2.0,61,0.00,,---,0.00,VWS V14.01,2013-07-06 00:35:00,
2013-07-05 17:41:00,80.6,65.4,29.55,NNW,333,2.0,6.0,60,0.00,,---,0.00,VWS V14.01,2013-07-06 00:41:00,
2013-07-05 17:46:00,80.8,64.7,29.55,North,352,2.0,6.0,58,0.00,,---,0.00,VWS V14.01,2013-07-06 00:46:00,
2013-07-05 17:51:00,81.1,64.4,29.54,NNE,24,0.0,6.0,57,0.00,,---,0.00,VWS V14.01,2013-07-06 00:51:00,
2013-07-05 17:56:00,81.4,64.2,29.54,North,6,1.0,6.0,56,0.00,,---,0.00,VWS V14.01,2013-07-06 00:56:00,
2013-07-05 18:00:00,81.8,64.1,29.56,South,184,3.0,6.0,55,0.00,,---,0.00,VWS V14.01,2013-07-06 01:00:00,
2013-07-05 18:01:00,81.6,63.9,29.55,SW,229,0.0,6.0,55,0.00,,---,0.00,VWS V14.01,2013-07-06 01:01:00,
2013-07-05 18:06:00,80.7,66.9,29.56,WSW,247,5.0,13.0,63,0.00,,---,0.00,VWS V14.01,2013-07-06 01:06:00,
2013-07-05 18:11:00,78.1,67.1,29.57,South,189,4.0,13.0,69,0.00,,---,0.00,VWS V14.01,2013-07-06 01:11:00,
2013-07-05 18:16:00,77.3,66.3,29.58,South,190,4.0,13.0,69,0.00,,---,0.00,VWS V14.01,2013-07-06 01:16:00,
2013-07-05 18:17:00,77.3,66.3,29.58,SW,214,4.0,13.0,69,0.00,,---,0.00,VWS V14.01,2013-07-06 01:17:00,
2013-07-05 18:22:00,77.3,66.3,29.58,South,188,4.0,13.0,69,0.00,,---,0.00,VWS V14.01,2013-07-06 01:22:00,
2013-07-05 18:27:00,77.7,66.3,29.58,SW,224,5.0,13.0,68,0.00,,---,0.00,VWS V14.01,2013-07-06 01:27:00,
2013-07-05 18:30:00,78.1,66.3,29.59,SW,214,2.0,13.0,67,0.00,,---,0.00,VWS V14.01,2013-07-06 01:30:00,
2013-07-05 18:32:00,78.1,66.3,29.59,SW,219,2.0,13.0,67,0.00,,---,0.00,VWS V14.01,2013-07-06 01:32:00,
2013-07-05 18:37:00,78.4,65.7,29.59,SW,235,1.0,5.0,65,0.00,,---,0.00,VWS V14.01,2013-07-06 01:37:00,
2013-07-05 18:42:00,78.9,66.2,29.59,WSW,238,5.0,5.0,65,0.00,,---,0.00,VWS V14.01,2013-07-06 01:42:00,
2013-07-05 18:47:00,79.0,65.3,29.60,West,262,6.0,8.0,63,0.00,,---,0.00,VWS V14.01,2013-07-06 01:47:00,
2013-07-05 18:53:00,79.2,64.6,29.60,SE,145,4.0,9.0,61,0.00,,---,0.00,VWS V14.01,2013-07-06 01:53:00,
2013-07-05 18:58:00,79.6,65.0,29.60,SSW,195,3.0,9.0,61,0.00,,---,0.00,VWS V14.01,2013-07-06 01:58:00,
2013-07-05 19:00:00,80.0,64.4,29.59,WSW,239,4.0,9.0,59,0.00,,---,0.00,VWS V14.01,2013-07-06 02:00:00,
2013-07-05 19:03:00,80.0,64.4,29.59,SW,233,4.0,4.0,59,0.00,,---,0.00,VWS V14.01,2013-07-06 02:03:00,
2013-07-05 19:08:00,80.5,63.9,29.59,SSW,203,1.0,4.0,57,0.00,,---,0.00,VWS V14.01,2013-07-06 02:08:00,
2013-07-05 19:13:00,81.0,63.3,29.60,WSW,250,1.0,4.0,55,0.00,,---,0.00,VWS V14.01,2013-07-06 02:13:00,
2013-07-05 19:18:00,81.3,63.1,29.60,WSW,246,0.0,4.0,54,0.00,,---,0.00,VWS V14.01,2013-07-06 02:18:00,
2013-07-05 19:23:00,81.3,63.1,29.60,WSW,253,0.0,4.0,54,0.00,,---,0.00,VWS V14.01,2013-07-06 02:23:00,
2013-07-05 19:28:00,81.2,63.0,29.60,West,274,2.0,4.0,54,0.00,,---,0.00,VWS V14.01,2013-07-06 02:28:00,
2013-07-05 19:30:00,81.3,63.1,29.60,West,271,0.0,4.0,54,0.00,,---,0.00,VWS V14.01,2013-07-06 02:30:00,
2013-07-05 19:33:00,81.2,63.0,29.60,West,271,0.0,0.0,54,0.00,,---,0.00,VWS V14.01,2013-07-06 02:33:00,
2013-07-05 19:38:00,81.1,63.4,29.60,WSW,243,0.0,3.0,55,0.00,,---,0.00,VWS V14.01,2013-07-06 02:38:00,
2013-07-05 19:44:00,80.9,63.2,29.60,SW,228,0.0,3.0,55,0.00,,---,0.00,VWS V14.01,2013-07-06 02:44:00,
2013-07-05 19:49:00,80.9,62.2,29.60,SW,232,0.0,3.0,53,0.00,,---,0.00,VWS V14.01,2013-07-06 02:49:00,
2013-07-05 19:54:00,81.1,63.4,29.60,NE,40,3.0,5.0,55,0.00,,---,0.00,VWS V14.01,2013-07-06 02:54:00,
2013-07-05 19:59:00,80.8,63.1,29.60,North,7,0.0,5.0,55,0.00,,---,0.00,VWS V14.01,2013-07-06 02:59:00,
2013-07-05 20:00:00,80.7,63.6,29.60,North,11,0.0,5.0,56,0.00,,---,0.00,VWS V14.01,2013-07-06 03:00:00,
2013-07-05 20:04:00,80.7,63.6,29.60,North,11,0.0,0.0,56,0.00,,---,0.00,VWS V14.01,2013-07-06 03:04:00,
2013-07-05 20:09:00,80.5,62.9,29.60,NW,315,0.0,0.0,55,0.00,,---,0.00,VWS V14.01,2013-07-06 03:09:00,
2013-07-05 20:14:00,80.3,63.2,29.60,West,274,0.0,0.0,56,0.00,,---,0.00,VWS V14.01,2013-07-06 03:14:00,
2013-07-05 20:19:00,80.1,63.0,29.61,West,259,2.0,3.0,56,0.00,,---,0.00,VWS V14.01,2013-07-06 03:19:00,
2013-07-05 20:24:00,79.9,62.8,29.61,West,272,0.0,3.0,56,0.00,,---,0.00,VWS V14.01,2013-07-06 03:24:00,
2013-07-05 20:30:00,79.8,62.7,29.61,West,277,0.0,3.0,56,0.00,,---,0.00,VWS V14.01,2013-07-06 03:30:00,
2013-07-05 20:35:00,79.8,62.7,29.62,West,266,0.0,0.0,56,0.00,,---,0.00,VWS V14.01,2013-07-06 03:35:00,
2013-07-05 20:40:00,79.8,62.7,29.62,West,266,0.0,0.0,56,0.00,,---,0.00,VWS V14.01,2013-07-06 03:40:00,
2013-07-05 20:45:00,79.6,62.5,29.63,West,266,0.0,0.0,56,0.00,,---,0.00,VWS V14.01,2013-07-06 03:45:00,
2013-07-05 20:50:00,79.4,62.3,29.63,West,266,0.0,0.0,56,0.00,,---,0.00,VWS V14.01,2013-07-06 03:50:00,
2013-07-05 20:55:00,79.3,62.3,29.64,West,266,0.0,0.0,56,0.00,,---,0.00,VWS V14.01,2013-07-06 03:55:00,
2013-07-05 21:00:00,79.1,62.6,29.64,West,266,0.0,0.0,57,0.00,,---,0.00,VWS V14.01,2013-07-06 04:00:00,
2013-07-05 21:01:00,79.1,62.6,29.64,West,266,0.0,0.0,57,0.00,,---,0.00,VWS V14.01,2013-07-06 04:01:00,
2013-07-05 21:03:00,79.1,62.6,29.64,West,266,0.0,0.0,57,0.00,,---,0.00,VWS V14.01,2013-07-06 04:03:00,
2013-07-05 21:08:00,78.8,62.8,29.65,West,266,0.0,0.0,58,0.00,,---,0.00,VWS V14.01,2013-07-06 04:08:00,
2013-07-05 21:13:00,78.8,62.8,29.65,West,266,0.0,0.0,58,0.00,,---,0.00,VWS V14.01,2013-07-06 04:13:00,
2013-07-05 21:18:00,78.8,62.8,29.65,West,266,0.0,0.0,58,0.00,,---,0.00,VWS V14.01,2013-07-06 04:18:00,
2013-07-05 21:23:00,78.8,62.8,29.65,North,6,0.0,0.0,58,0.00,,---,0.00,VWS V14.01,2013-07-06 04:23:00,
2013-07-05 21:29:00,78.8,62.8,29.66,NNE,22,0.0,0.0,58,0.00,,---,0.00,VWS V14.01,2013-07-06 04:29:00,
2013-07-05 21:30:00,78.8,62.8,29.66,NNE,18,0.0,0.0,58,0.00,,---,0.00,VWS V14.01,2013-07-06 04:30:00,
2013-07-05 21:34:00,78.7,62.7,29.66,NNE,18,0.0,0.0,58,0.00,,---,0.00,VWS V14.01,2013-07-06 04:34:00,
2013-07-05 21:39:00,78.5,62.5,29.66,NNE,18,0.0,0.0,58,0.00,,---,0.00,VWS V14.01,2013-07-06 04:39:00,
2013-07-05 21:44:00,78.4,62.9,29.66,NNE,18,0.0,0.0,59,0.00,,---,0.00,VWS V14.01,2013-07-06 04:44:00,
2013-07-05 21:49:00,78.4,63.4,29.66,WNW,291,0.0,0.0,60,0.00,,---,0.00,VWS V14.01,2013-07-06 04:49:00,
2013-07-05 21:54:00,78.4,63.4,29.66,North,359,1.0,2.0,60,0.00,,---,0.00,VWS V14.01,2013-07-06 04:54:00,
2013-07-05 21:59:00,78.3,63.3,29.66,WSW,243,0.0,2.0,60,0.00,,---,0.00,VWS V14.01,2013-07-06 04:59:00,
2013-07-05 22:00:00,78.3,63.3,29.66,WSW,245,0.0,2.0,60,0.00,,---,0.00,VWS V15.00,2013-07-06 05:00:00,
2013-07-05 22:04:00,78.3,63.3,29.66,WSW,245,0.0,0.0,60,0.00,,---,0.00,VWS V14.01,2013-07-06 05:04:00,
2013-07-05 22:09:00,78.3,62.8,29.66,WSW,248,0.0,0.0,59,0.00,,---,0.00,VWS V14.01,2013-07-06 05:09:00,
2013-07-05 22:15:00,78.2,62.7,29.67,WSW,248,0.0,0.0,59,0.00,,---,0.00,VWS V14.01,2013-07-06 05:15:00,
2013-07-05 22:20:00,78.0,63.0,29.67,WSW,248,0.0,0.0,60,0.00,,---,0.00,VWS V14.01,2013-07-06 05:20:00,
2013-07-05 22:25:00,77.9,62.9,29.67,WSW,248,0.0,0.0,60,0.00,,---,0.00,VWS V14.01,2013-07-06 05:25:00,
2013-07-05 22:30:00,77.8,62.8,29.66,WSW,248,0.0,0.0,60,0.00,,---,0.00,VWS V14.01,2013-07-06 05:30:00,
2013-07-05 22:35:00,77.9,62.9,29.66,WSW,248,0.0,0.0,60,0.00,,---,0.00,VWS V14.01,2013-07-06 05:35:00,
2013-07-05 22:40:00,77.9,62.9,29.66,WSW,248,0.0,0.0,60,0.00,,---,0.00,VWS V14.01,2013-07-06 05:40:00,
2013-07-05 22:45:00,77.9,62.9,29.66,NNW,332,0.0,0.0,60,0.00,,---,0.00,VWS V14.01,2013-07-06 05:45:00,
2013-07-05 22:50:00,77.9,62.9,29.66,NNW,332,0.0,1.0,60,0.00,,---,0.00,VWS V14.01,2013-07-06 05:50:00,
2013-07-05 22:55:00,77.9,62.4,29.66,NNW,338,0.0,1.0,59,0.00,,---,0.00,VWS V14.01,2013-07-06 05:55:00,
2013-07-05 23:00:00,78.1,62.6,29.66,NNW,338,0.0,1.0,59,0.00,,---,0.00,VWS V14.01,2013-07-06 06:00:00,
2013-07-05 23:05:00,78.0,63.0,29.66,NNW,338,0.0,0.0,60,0.00,,---,0.00,VWS V14.01,2013-07-06 06:05:00,
2013-07-05 23:10:00,77.9,62.9,29.66,NNW,338,0.0,0.0,60,0.00,,---,0.00,VWS V14.01,2013-07-06 06:10:00,
2013-07-05 23:15:00,77.9,62.9,29.66,NNE,29,0.0,1.0,60,0.00,,---,0.00,VWS V14.01,2013-07-06 06:15:00,
2013-07-05 23:20:00,77.9,62.9,29.66,NNE,29,0.0,1.0,60,0.00,,---,0.00,VWS V14.01,2013-07-06 06:20:00,
2013-07-05 23:26:00,77.7,62.7,29.66,NE,40,2.0,2.0,60,0.00,,---,0.00,VWS V14.01,2013-07-06 06:26:00,
2013-07-05 23:30:00,77.6,63.1,29.65,NNE,32,0.0,2.0,61,0.00,,---,0.00,VWS V14.01,2013-07-06 06:30:00,
2013-07-05 23:31:00,77.7,63.2,29.65,NE,40,1.0,2.0,61,0.00,,---,0.00,VWS V14.01,2013-07-06 06:31:00,
2013-07-05 23:36:00,77.5,63.5,29.65,NE,34,1.0,2.0,62,0.00,,---,0.00,VWS V14.01,2013-07-06 06:36:00,
2013-07-05 23:41:00,77.5,63.5,29.65,NE,44,0.0,3.0,62,0.00,,---,0.00,VWS V14.01,2013-07-06 06:41:00,
2013-07-05 23:46:00,77.3,63.7,29.65,NE,44,1.0,3.0,63,0.00,,---,0.00,VWS V14.01,2013-07-06 06:46:00,
2013-07-05 23:51:00,77.3,63.7,29.65,NE,40,0.0,3.0,63,0.00,,---,0.00,VWS V14.01,2013-07-06 06:51:00,
2013-07-05 23:56:00,77.2,63.2,29.65,NE,40,0.0,3.0,62,0.00,,---,0.00,VWS V14.01,2013-07-06 06:56:00,